Location: Saint-Maurice-d�Ard�che
(44.5216°N, 4.4002°E)
Time: 13:42:11
(UTC+00:00)

STARLINK-1200 - Pass Details

Date: 30 March 2020
Orbit: 549 x 550 km, 53.0° (Epoch: 27 May)

Event Time Altitude Azimuth Distance (km) Brightness Sun altitude
Rises 18:47:54 0° 236° (SW) 2,672 7.8 -7.9°
Reaches altitude 10° 18:50:07 10° 237° (WSW) 1,782 6.9 -8.2°
Maximum altitude 18:54:10 87° 327° (NNW) 538 3.6 -8.9°
Drops below altitude 10° 18:58:13 10° 56° (NE) 1,784 5.8 -9.6°
Enters shadow 18:59:41 - 57° (ENE) 2,372 6.5 -9.9°
